Location: Asheville, NC
(35.6000°N, 82.5500°W)
Time: 01:57:01
(UTC-04:00)

ISS - Pass Details

Date: 14 October 2017
Orbit: 400 x 408 km, 51.6° (Epoch: 24 October)

Event Time Altitude Azimuth Distance (km) Brightness Sun altitude
Rises 19:25:56 0° 321° (NW) 2,320 0.5 -6.9°
Reaches altitude 10° 19:28:14 10° 334° (NNW) 1,460 -0.7 -7.4°
Maximum altitude 19:31:04 26° 34° (NE) 827 -2.6 -8.0°
Enters shadow 19:33:38 12° 92° (E) 1,370 -1.8 -8.5°
